{"data":{"norad_id":66895,"epoch":"2026-09-20T07:21:10.821600Z","epoch_age_seconds":101184,"freshness":"FRESH","line1":"1 66895U 25283T   26263.30637525  .00013740  00000+0  41691-3 0  9992","line2":"2 66895  53.1571 196.4510 0001223  83.0650 277.0492 15.34409642 45697","mean_motion":15.34409642,"eccentricity":0.0001223,"inclination_deg":53.1571,"raan_deg":196.451,"arg_perigee_deg":83.065,"mean_anomaly_deg":277.0492,"bstar":0.00041691,"rev_number":4569,"period_min":93.847168356102,"perigee_km":461.8379510447,"apogee_km":463.51121355773,"semimajor_km":6840.8115823012,"source":"CELESTRAK","updated_at":"2026-09-21T09:00:36.052944Z"}}